Regional Weather Roundup
Issued by NWS Charleston, SC

Current Version | Previous Version | Graphics & Text | Print | Product List | Glossary On
Versions: 1 2 3 4 5 6 7 8 9 10 11 12 13 14 15 16 17 18 19 20 21 22 23 24 25 26 27 28 29 30 31 32 33 34 35 36 37 38 39 40 41 42 43 44 45 46 47 48 49 50
000
ASUS42 KCHS 222011
RWRCHS

REGIONAL WEATHER ROUNDUP
NATIONAL WEATHER SERVICE CHARLESTON SC
300 PM EST WED FEB 22 2017

NOTE: "FAIR" INDICATES FEW OR NO CLOUDS BELOW 12,000 FEET WITH NO
SIGNIFICANT WEATHER AND/OR OBSTRUCTIONS TO VISIBILITY.

NOT ALL STATIONS ARE QUALITY CONTROLLED. USE DATA WITH CAUTION...
ESPECIALLY DEWPOINT OBSERVATIONS.

SCZ027-030-031-034>040-042>050-222100-
...SOUTHEAST SOUTH CAROLINA...

CITY           SKY/WX    TMP DP  RH WIND       PRES   REMARKS
N CHARLESTON   PTSUNNY   74  59  59 E16       29.87F
WATERFRONT PRK   N/A     70  63  78 E13       29.86F
MOUNT PLEASANT FAIR      72  61  68 E6G16     29.88F
JOHNS ISLAND   FAIR      70  63  78 E15       29.88S
PINOPOLIS        N/A     72  57  60 SE6       29.81F
MONCKS CORNER  FAIR      70  55  60 SE7       29.89R
SUMMERVILLE    FAIR      72  54  53 E6        29.88F
BEAUFORT MCAS  LGT RAIN  67  62  84 E13       29.86S
BEAUFORT ARPT  CLOUDY    66  61  82 E10       29.86S
HILTON HEAD IS PTSUNNY   66  61  82 E9        29.85F
WALTERBORO     CLOUDY    73  54  49 E12G17    29.88S
ALLENDALE      FAIR      72  59  64 SE9       29.85F

...SOUTHERN MIDLANDS AND PEE DEE...

CITY           SKY/WX    TMP DP  RH WIND       PRES   REMARKS
GEORGETOWN     FAIR      66  57  72 SE8       29.92F
KINGSTREE      FAIR      72  50  46 E14G20    29.89F
ORANGEBURG     CLOUDY    72  54  53 SE8       29.87F
BARNWELL       MOCLDY    73  59  60 E12       29.86F
AIKEN          MOCLDY    70  55  60 E6        29.91S
MANNING        FAIR     N/A N/A N/A MISG      29.88F
COLUMBIA       CLOUDY    74  55  51 E8        29.88F
SUMTER         PTSUNNY   74  53  47 SE8       29.86F
FLORENCE       MOSUNNY   75  51  43 SE6       29.89F
MYRTLE BEACH   PTSUNNY   70  57  64 SE14      29.94F
N MYRTLE BEACH MOSUNNY   69  56  62 SE8       29.92F

$$

GAZ063-065-086>088-099>101-113>116-118-119-134>141-150-222100-
...SOUTHEAST GEORGIA...

CITY           SKY/WX    TMP DP  RH WIND       PRES   REMARKS
SAVANNAH ARPT  HVY RAIN  64  62  93 N8        29.84F VSB 3/4
HUNTER AAF     PTSUNNY   66  66 100 E6        29.81S
FORT STEWART   CLOUDY    66  63  88 CALM      29.80S
STATESBORO     RAIN      65  65 100 E5        29.85F
SYLVANIA       LGT RAIN N/A N/A N/A SE3       29.86F
CLAXTON        RAIN     N/A N/A N/A NE3       29.84S

...CSRA...CENTRAL AND FAR SOUTHEAST GEORGIA...

CITY           SKY/WX    TMP DP  RH WIND       PRES   REMARKS
THOMSON        MOSUNNY   73  61  66 E5        29.91S
AUGUSTA-BUSH   CLOUDY    74  59  59 SE8       29.86F
AUGUSTA-DANIEL PTSUNNY   72  56  57 E8        29.87F
SWAINSBORO     RAIN      64  64 100 E9        29.86S
VIDALIA        CLOUDY    64  64 100 E9        29.83F
EASTMAN        CLOUDY    71  52  50 E12G17    29.84S
HAZLEHURST     MOCLDY    69  64  83 E8        29.80F
ALMA           PTSUNNY   69  63  81 E9        29.79S
WAYCROSS       LGT RAIN  71  69  94 E7        29.77S
JESUP          CLOUDY    64  63  94 E7        29.81S
BAXLEY         RAIN      66  66 100 E9        29.81R
BRUNSWICK      LGT RAIN  68  68 100 E7        29.80S
SAINT SIMONS   CLOUDY    68  64  87 E10       29.78S

$$

SCZ027-028-034-036>038-045-046-048>050-GAZ119-141-222100-
...LAKE AND SUPPLEMENTAL COASTAL OBSERVATIONS...

STATION/POSITION TIME  TEMP    WIND        PRES    WAVE   SWELL
                       AIR SEA DIR/SP/G            HT/PER HT/PER/DIR
                 (UTC) (F)     (DEG/KT/KT) (MB)    (FT/S) (FT/S/D)
WINYAH BAY       NOT AVBL
LAKE MURRAY      1920   71     130/  2/  4 1011.9
ACE BASIN NERRS  1845   72     110/  7     1011.0
FORT PULASKI     1948   64 61   70/ 13/ 17 1010.3F
SAPELO ISLAND    1900   66      90/  6     1009.0

$$

ANZ835-935-AMZ111-154-330-350-352-354-370-450-454-472-222100-
...C-MAN AND BUOY OBSERVATIONS...

STATION/POSITION TIME  TEMP    WIND        PRES    WAVE   SWELL
                       AIR SEA DIR/SP/G            HT/PER HT/PER/DIR
                 (UTC) (F)     (DEG/KT/KT) (MB)    (FT/S) (FT/S/D)
BUOY 41004       1850   68 70   80/ 17/ 21 1011.1    5/ 5
BUOY 41008       1950   67 63  110/ 17/ 21 1008.7F   6/ 7   2/ 90/14
FOLLY BEACH CMAN 1900   65      50/  8/  9 1012.5F
CAPERS NEARSHORE 1908   62 59   70/  8/ 12 1012.0F
FRIPP NEARSHORE  1908   64 61   70/ 12/ 16 1010.8F


STATION/POSITION TIME  TEMP    WIND        PRES    WAVE   SWELL
                       AIR SEA DIR/SP/G            HT/PER HT/PER/DIR
                 (UTC) (F)     (DEG/KT/KT) (MB)    (FT/S) (FT/S/D)
5E ST. MARYS GA  1930      63                N/A     5/ 7
FRYING PAN BUOY  1950   69 69  130/ 14/ 17 1012.9F   4/ 7   2/ 90/ 7
BUOY 41025       1950   68 75  160/ 12/ 16 1014.7F   3/ 9   3/ 70/ 9
CAPE LOOKOUT NC  1900   65     150/  6/  6 1014.4F
BUOY 41002       1950   65 70  100/ 14/ 16 1014.8F   5/ 9   3/ 30/ 9
BUOY 41010       NOT AVBL
ST AUGUSTINE FL  2000   68 68  180/  9/ 11 1007.9R


$$




USA.gov is the U.S. government's official web portal to all federal, state and local government web resources and services.